Regional Weather Roundup
Issued by NWS Green Bay, WI

Home | Current Version | Previous Version | Graphics & Text | Print | Product List | Glossary Off
Versions: 1 2 3 4 5 6 7 8 9 10 11 12 13 14 15 16 17 18 19 20 21 22 23 24 25 26 27 28 29 30 31 32 33 34 35 36 37 38 39 40 41 42 43 44 45 46 47 48 49 50

000
ASUS43 KGRB 281410
RWRGRB

NORTH-CENTRAL AND NORTHEAST WISCONSIN REGIONAL WEATHER ROUNDUP
NATIONAL WEATHER SERVICE GREEN BAY WI
900 AM CDT SAT MAR 28 2015

WIZ005-009-010>012-018-019-281500-
NORTH CENTRAL WISCONSIN

CITY           SKY/WX    TMP DP  RH WIND       PRES   REMARKS
IRONWOOD       SUNNY     21  10  63 CALM      30.21R
MANITOWISH WTR SUNNY     19  12  74 CALM      30.22R
ARBOR VITAE    SUNNY     18   9  69 S3        30.22S
EAGLE RIVER    SUNNY     13   6  72 CALM      30.22S
LAND O LAKES   SUNNY     16   7  67 SW3       30.23R
RHINELANDER    SUNNY     20   9  62 SW5       30.23S
PHILLIPS       SUNNY     21  12  68 CALM      30.22S
ANTIGO         SUNNY     19  11  70 S7        30.25R
TOMAHAWK       SUNNY     19  11  72 CALM      30.25S
MERRILL        SUNNY     18  11  75 CALM      30.25S
$$

WIZ013-073-281500-
NORTHEAST WISCONSIN

CITY           SKY/WX    TMP DP  RH WIND       PRES   REMARKS
IRON MOUNTAIN  SUNNY     14   3  61 CALM      30.25R
MARINETTE      SUNNY     21  10  63 SE5       30.32R
OCONTO         SUNNY     23  13  65 CALM      30.33R
$$

WIZ017-030-035>037-045-281500-
CENTRAL WISCONSIN

CITY           SKY/WX    TMP DP  RH WIND       PRES   REMARKS
MEDFORD        SUNNY     21  13  71 S3        30.24S
WAUSAU         SUNNY     19  12  74 SE3       30.26R
MOSINEE        SUNNY     19  12  73 VRB3      30.28R
MARSHFIELD     SUNNY     25  16  68 S3        30.27R
WISC RAPIDS    SUNNY     23  11  60 VRB3      30.31R
STEVENS POINT  SUNNY     22  12  64 CALM      30.30R
WAUPACA        SUNNY     26  17  68 S5        30.31S
SHAWANO        SUNNY     21  15  79 CALM      30.32R
CLINTONVILLE   SUNNY     23  16  74 S5        30.31R
$$

WIZ038-039-048-051-281500-
FOX VALLEY

CITY           SKY/WX    TMP DP  RH WIND       PRES   REMARKS
NWS GREEN BAY  SUNNY     23  14  68 S3        30.33R
APPLETON       SUNNY     23  16  74 VRB3      30.31R
OSHKOSH        SUNNY     25  15  66 SE5       30.32R
FOND DU LAC    SUNNY     25  16  68 SE3       30.32R
$$

WIZ022-050-052-281500-
EAST CENTRAL WISCONSIN

CITY           SKY/WX    TMP DP  RH WIND       PRES   REMARKS
STURGEON BAY   SUNNY     21  10  63 SE3       30.34S
MANITOWOC      SUNNY     29  19  66 CALM      30.33R
SHEBOYGAN      SUNNY     26  16  65 NW3       30.32R
$$

LMZ563-521-522-541>543-281500-
LAKESHORE

STATION/POSITION TIME  TEMP    WIND        PRES    VSBY  WAVE
                       AIR SEA DIR/SP/G                  HT/PER
                 (UTC) (F)     (DEG/KT/KT) (MB)    (MI)  (FT/S)
SHEBOYGAN LKSHOR 1400   26     350/  3/  4 1028.3R
KEWAUNEE LKSHORE 1400   25      60/  2/  5 1026.0R
NORTHPORT PIER   1400   21     340/  3/  4 1027.1S
SISTER BAY LKSHO 1400             CALM       N/A
CHAMBERS ISLAND  1400   21      80/  4/  5 1027.1R
MENOMINEE LKSHOR 1400   17      30/  2     1027.4S
$$


USA.gov is the U.S. government's official web portal to all federal, state and local government web resources and services.